Flag for Western Sahara Weather past 2 weeks in Smara, Western Sahara

Now
66 °F

Passing clouds.


Feels Like: 66 °F
Forecast: 60 / 93 °F
Wind: 15 mph from Northeast

Location: Laayoune/Hassan Isl

Current Time: May 30, 2015 at 11:51:57 PM

Latest Report: May 30, 2015 at 11:00 PM


Visibility: N/A

Pressure: 30.09 "Hg

Humidity: 78%

Dew point: 59 °F

Location of SmaraLocation

Historic Weather in Smara — Graph

°F

Smara temperature yesterday

Maximum temperature yesterday: 79 °F (at 4:00 PM)
Minimum temperature yesterday: 64 °F (at 1:00 AM)
Average temperature yesterday: 70 °F

Past Weeks' High & Low Weather Summary

 TemperatureHumidityPressure
High86 °F (May 17, 4:00 PM)88% (May 18, 4:00 AM)30.12 "Hg (May 18, 4:00 AM)
Low61 °F (May 26, 4:00 AM)27% (May 17, 5:00 PM)29.95 "Hg (May 17, 4:00 PM)
Average69 °F65%30.04 "Hg
* Reported May 15 10:00 PM — May 30 10:00 PM, Smara, Weather by CustomWeather, © 2015

Note: Actual official high and low records may vary slightly from our data, if they occured in-between our weather recording intervals... More about our weather records

Advertising

Smara weather history for previous 24 hours

 ConditionsComfort  
Time TempWeatherWind HumidityBarometerVisibility
10:00 PM
Sat, May 30
68 °FPassing clouds.17 mph73%30.07 "HgN/A
9:00 PM68 °FSunny.17 mph73%30.04 "Hg10 mi
8:00 PM73 °FSunny.20 mph61%30.04 "Hg10 mi
6:00 PM81 °FSunny.18 mph48%30.01 "Hg10 mi
5:00 PM82 °FSunny.18 mph45%30.01 "Hg10 mi
4:00 PM84 °FSunny.15 mph40%30.01 "Hg10 mi
3:00 PM82 °FSunny.10 mph40%30.04 "Hg10 mi
2:00 PM81 °FSunny.10 mph42%30.04 "Hg10 mi
1:00 PM79 °FSunny.13 mph48%30.07 "Hg10 mi
12:00 PM75 °FSunny.13 mph54%30.07 "Hg10 mi
11:00 AM72 °FPassing clouds.12 mph61%30.07 "HgN/A
10:00 AM70 °FScattered clouds.10 mph64%30.07 "HgN/A
9:00 AM68 °FPartly sunny.12 mph69%30.07 "HgN/A
8:00 AM66 °FScattered clouds.14 mph73%30.04 "Hg5 mi
7:00 AM66 °FPassing clouds.14 mph73%30.04 "Hg5 mi
6:00 AM63 °FPassing clouds.14 mph88%30.01 "Hg5 mi
5:00 AM64 °FPassing clouds.15 mph83%30.04 "Hg5 mi
4:00 AM64 °FPassing clouds.14 mph78%30.04 "Hg5 mi
3:00 AM64 °FPassing clouds.14 mph78%30.04 "Hg5 mi
2:00 AM66 °FPassing clouds.15 mph73%30.04 "Hg5 mi
1:00 AM66 °FPassing clouds.17 mph73%30.04 "Hg5 mi
12:00 AM68 °FPassing clouds.14 mph69%30.07 "Hg5 mi
11:00 PM
Fri, May 29
68 °FClear.13 mph69%30.04 "Hg10 mi
Weather by CustomWeather, © 2015

See weather overviewHow to use our weather pages